metlocid,date_time,avg_soilt0cm,std_soilt0cm,min_soilt0cm,max_soilt0cm,n_soilt0cm,avg_soilt5cm,std_soilt5cm,min_soilt5cm,max_soilt5cm,n_soilt5cm,avg_soilt10cm,std_soilt10cm,min_soilt10cm,max_soilt10cm,n_soilt10cm,n_comments
HOEM,12/1/93,,,,,0,,,,,0,-3.297377558,1.011031856,-4.71,-1.6,1899,0
HOEM,1/1/94,1.876033047,5.538057622,-7.42,16.97,121,1.176611574,2.813929521,-5.11,8.27,121,-0.233794532,0.646680594,-2.97,3.93,2414,0
HOEM,2/1/94,-9.83629464,8.013098693,-28.23,6.94,224,-8.672991071,6.203099365,-22.79,1.71,224,-6.953080363,4.579595394,-17.17,-0.26,224,1
HOEM,3/1/94,-25.48060478,6.105017793,-36.81,-12.65,248,-23.29379032,4.551697805,-32.17,-13.77,248,-20.0074597,3.23741872,-26.53,-14.06,248,0
HOEM,4/1/94,-23.02049991,5.734731813,-34.14,-10.16,240,-21.94762501,4.209726619,-29.97,-13.75,240,-20.44720834,2.655565076,-25.55,-15.92,240,0
HOEM,5/1/94,-32.03770158,6.017624403,-42.21,-17.91,248,-30.25266127,4.483678395,-38.13,-20.22,248,-27.635,2.868748462,-32.69,-21.47,248,0
HOEM,6/1/94,-28.67541665,7.022348708,-40.41,-14.39,240,-27.82866664,5.358092605,-37.04,-17.52,240,-26.62170837,3.42457539,-32.82,-20.31,240,0
HOEM,7/1/94,-30.70709675,9.264804849,-43.89,-7.02,248,-29.74217735,7.030718276,-40.18,-11.44,248,-28.44588712,4.453699671,-35.51,-16.69,248,0
HOEM,8/1/94,-35.53919351,9.0801965,-45.74,-12.89,248,-34.27459688,6.968683474,-42.06,-17.16,248,-32.60697586,4.624501016,-37.8,-21.65,248,0
HOEM,9/1/94,-34.44766679,6.363293392,-42.78,-13.16,240,-33.20162487,4.917069912,-39.85,-18.84,240,-31.75841656,3.494936569,-36.54,-21.95,240,0
HOEM,10/1/94,-19.6220968,6.525665325,-35.76,-4.16,248,-20.84758059,4.55281114,-32.24,-10.79,248,-22.27116937,2.952527746,-30.53,-15.66,248,0
HOEM,11/1/94,-4.790345842,5.410686515,-17.74,12.56,1012,-8.882727297,3.165654006,-16.79,-1.07,143,-8.917430823,1.765359247,-17.56,-5.98,1012,0
HOEM,12/1/94,3.005107526,5.592081629,-10.54,25.69,2232,,,,,0,-1.620685483,2.218440284,-8.2,3.53,2232,1
HOEM,1/1/95,2.546352629,6.031638876,-8.71,22.28,2229,,,,,0,0.278286228,1.407302105,-2.75,4.21,2229,1
HOEM,2/1/95,-5.675580355,6.044748321,-20.21,14.48,2016,,,,,0,-4.760977181,2.443049044,-10.63,1.16,2016,0
HOEM,3/1/95,-21.89403227,7.386017896,-33.4,-7.5,2232,,,,,0,-16.45048834,5.34263246,-24.1,-7.18,2232,0
HOEM,4/1/95,-29.70993517,6.707638302,-42.29,-12.05,2160,,,,,0,-24.71619444,3.529143129,-31.86,-16.45,2160,0
HOEM,5/1/95,-30.24120972,7.207149524,-42.78,-11.69,2232,,,,,0,-26.77443993,3.233954349,-32.73,-20.69,2232,0
HOEM,6/1/95,-29.06453699,8.282939307,-43.04,-6.72,2160,,,,,0,-27.34439351,3.677417056,-34.32,-18.49,2160,0
HOEM,7/1/95,-31.8507706,6.070126793,-40.73,-9.82,2232,,,,,0,-28.71149189,3.308265428,-33.49,-17.88,2232,0
HOEM,8/1/95,-29.03302864,8.328402969,-42.29,-7.28,2232,,,,,0,-27.32275983,3.865217066,-34.15,-17.53,2232,0
HOEM,9/1/95,-29.63273148,10.01815943,-46.73,-10.46,2160,,,,,0,-28.77556481,5.608639222,-37.58,-19.78,2160,0
HOEM,10/1/95,-19.00984767,5.971476847,-32.63,-1.22,2232,,,,,0,-20.36280465,2.459071715,-25.63,-15.71,2232,0
HOEM,11/1/95,-5.632355603,8.073869866,-23.94,16.67,1991,,,,,0,-10.5123556,4.725009285,-20.06,-1.64,1991,0
HOEM,12/1/96,,,,,0,,,,,0,,,,,0,1
HOEM,12/1/97,,,,,0,,,,,0,,,,,0,1
HOEM,12/1/98,,,,,0,,,,,0,,,,,0,1
HOEM,12/1/99,,,,,0,,,,,0,,,,,0,1
HOEM,12/1/00,,,,,0,,,,,0,,,,,0,1
HOEM,12/1/01,,,,,0,,,,,0,,,,,0,1
HOEP,12/1/02,6.256456987,4.818031814,-1.98,21.03,1081,4.394999997,2.861740903,-1.11,11.15,1082,2.30371534,1.793026233,-1.38,6.5,1082,1
HOEP,1/1/03,5.946439093,5.798384127,-7.09,24.4,2783,4.725120371,3.624107334,-3.3,15.5,2783,3.215943228,2.21545731,-1.19,9.04,2783,0
HOEM,1/1/03,0.21057291,5.506796505,-8.68,11.88,192,0.173802081,2.902628444,-4.73,6.43,192,-0.018697919,1.469478256,-2.51,3.06,192,0
HOEM,2/1/03,-4.590997021,5.951595659,-18.26,14.72,2688,-4.39596726,4.057435492,-14.12,7.08,2688,-4.169412205,2.945747346,-10.42,2.53,2688,0
HOEM,3/1/03,-19.67728157,5.709182476,-33.77,-7.42,2976,-18.28894824,4.744793781,-29.72,-7.61,2976,-16.65707998,3.989497306,-25.51,-6.68,2976,0
HOEM,4/1/03,-29.50036456,6.416159304,-37.97,-7.78,2880,-27.73664235,5.317946859,-34.73,-11.27,2880,-25.6862292,4.246926616,-31.62,-14.17,2880,0
HOEM,5/1/03,-23.96655241,9.145557799,-38.33,-2.22,2976,-23.61699261,7.502179232,-35.49,-6.06,2976,-23.12984206,5.999485447,-32.46,-9.54,2976,0
HOEM,6/1/03,-29.90347568,6.768382665,-42.56,-11.81,2880,-28.6624514,5.334974842,-38.9,-16.37,2880,-27.1955243,4.098300622,-35.55,-19.24,2880,0
HOEM,7/1/03,-28.23409611,7.813211476,-42.5,-13.21,2976,-27.72511089,6.254628776,-39.21,-16.52,2976,-27.00761759,4.803965908,-36.07,-18.88,2976,0
HOEM,8/1/03,-35.38797043,6.390277491,-45.47,-14.57,2976,-33.9480578,5.203866106,-42.27,-18.95,2976,-32.32281247,4.236873756,-39,-21.02,2976,0
HOEM,9/1/03,-27.56526041,9.44051688,-45.81,-10.5,2880,-27.64989236,7.890762013,-42.83,-13.24,2880,-27.66285765,6.43401622,-39.88,-15.92,2880,0
HOEM,10/1/03,-16.47300067,5.894747981,-31.07,4.98,2976,-17.27029234,4.246788504,-30.08,-4.19,2976,-18.09979502,3.226498584,-29.18,-9.73,2976,0
HOEM,11/1/03,-3.813326389,6.610291609,-21.32,11.56,2880,-5.446565973,4.607412656,-17.73,4.22,2880,-7.261638894,3.601578306,-15.73,-0.1,2880,0
HOEM,12/1/03,7.751458341,6.025034714,-3.84,22.87,2976,5.927980509,4.347325993,-2.78,15.87,2976,3.602345431,3.224471962,-3.71,10.07,2976,0
HOEM,1/1/04,5.648038082,5.943824315,-8.41,22.65,2783,4.600125765,3.781786971,-4.01,15.32,2783,3.469777221,2.54562829,-2.24,9.77,2783,1
HOEP,1/1/04,1.494550254,6.335128103,-8.71,14.06,189,1.197999982,3.222305719,-4.26,7.37,190,0.797105265,1.67133554,-1.93,4.01,190,3
HOEP,2/1/04,-6.067248573,6.361172125,-19.12,13.81,2784,-5.561519397,4.575081039,-15.04,6.46,2784,-4.99628592,3.516370604,-11.38,3.02,2784,0
HOEP,3/1/04,-23.75630375,5.044590603,-32.57,-9.23,2976,-22.00466398,4.566886423,-29.83,-10.29,2976,-20.02565524,4.21770681,-26.93,-10.55,2976,0
HOEP,4/1/04,-28.60914584,5.006476437,-38.36,-15.61,2880,-27.44611457,3.923552551,-35.45,-17.39,2880,-25.95611459,2.982639462,-32.29,-18.2,2880,0
HOEP,5/1/04,-31.6466969,9.282306775,-44.08,-6.53,2976,-30.35914989,7.623690262,-41.02,-10.45,2976,-28.83956313,6.043357308,-37.78,-13.54,2976,0
HOEP,6/1/04,-27.48820138,8.718095002,-42.01,-8.51,2880,-27.0155625,6.990412845,-40.5,-12.27,2880,-26.39118749,5.537999958,-37.72,-14.98,2880,0
HOEP,7/1/04,-40.38435815,7.083709978,-51.07,-14.28,2976,-38.65526211,5.523162745,-47.1,-21.04,2976,-36.72323249,4.25640948,-43.34,-24.93,2976,0
HOEP,8/1/04,-35.73654909,7.564230086,-48.08,-11.16,2976,-35.07062496,5.734581518,-45.12,-16.87,2976,-34.24261086,4.329843258,-42.18,-21.36,2976,0
HOEP,9/1/04,-32.94836804,5.058719503,-41.08,-18.48,2880,-32.39236804,3.89780071,-38.87,-22.35,2880,-31.71670485,2.944067014,-36.68,-24.92,2880,0
HOEP,10/1/04,-22.40687162,9.891129645,-44.61,-2.52,2976,-23.04234206,8.312873612,-41.89,-9.86,2976,-23.66169354,7.003892103,-39.27,-14.34,2976,0
HOEP,11/1/04,-1.572638883,7.944787848,-21.64,18.87,2880,-3.766336802,6.405636899,-18.79,9.49,2880,-6.185972218,5.617870355,-19.49,2.69,2880,0
HOEP,12/1/04,7.500013441,5.587895786,-3.49,20.92,2976,5.671236555,3.606743279,-2.06,16.23,2976,3.486871644,2.315946589,-1.91,10.69,2976,0
HOEP,1/1/05,5.33204638,5.424254401,-9.35,23.21,2976,4.557234542,3.770519687,-5.02,15.93,2976,3.627150538,2.693116681,-2.94,11.16,2976,0
HOEP,2/1/05,-5.685721726,6.345376627,-18.61,14.31,2688,-5.155093002,4.768355156,-15.96,7.47,2688,-4.657961312,3.907714045,-13.73,3.74,2688,0
HOEP,3/1/05,-21.520168,5.223713615,-32.46,-8.57,2976,-20.14299058,4.403059086,-28.95,-9.38,2976,-18.73730175,3.883749077,-25.94,-9.57,2976,0
HOEP,4/1/05,-30.96574305,6.483963149,-42.27,-15,2880,-29.28023261,5.667976905,-39.03,-17.06,2880,-27.58717012,5.022842544,-36.04,-17.73,2880,0
HOEP,5/1/05,-26.95540655,7.779978769,-41.88,-9.57,2976,-26.351959,6.285220709,-38.62,-12.8,2976,-25.70532595,5.129963084,-35.65,-15.13,2976,0
HOEP,6/1/05,-31.27504164,7.900453499,-43.36,-6.67,2880,-30.65109719,6.147198914,-40.35,-11.15,2880,-29.9398403,4.768199409,-37.74,-14.82,2880,0
HOEP,7/1/05,-32.68303427,9.821778544,-46.41,-5.39,2976,-31.83103159,8.251042496,-43.43,-9.64,2976,-30.96114585,6.960322142,-40.7,-12.56,2976,0
HOEP,8/1/05,-33.31083669,8.319729485,-46.54,-11.84,2976,-32.35861224,6.639057242,-43.5,-16.2,2976,-31.47362566,5.393317973,-40.91,-19.66,2976,0
HOEP,9/1/05,-31.97245832,9.018730769,-45.23,-7.16,2880,-31.5579618,7.195787138,-42.08,-13.26,2880,-31.05522569,5.860227726,-39.44,-16.99,2880,0
HOEP,10/1/05,-18.02055108,8.123500176,-34.36,1.85,2976,-18.93687163,6.488452197,-31.08,-4.83,2976,-19.73228159,5.539710363,-29.1,-8.94,2976,0
HOEP,11/1/05,-2.486819448,6.229578021,-18.93,12.82,2880,-4.283986107,4.176404781,-16.47,5.47,2880,-5.931243057,3.400929368,-15.26,1.23,2880,0
HOEP,12/1/05,8.385204976,5.363559307,-4.54,22.73,2976,6.405776208,3.554840675,-3.03,15.03,2976,4.253454305,2.528037253,-2.91,9.62,2976,0
HOEP,1/1/06,6.311340723,6.027385275,-6.22,22.15,2976,5.082032933,3.839583756,-2.79,13.69,2976,3.727143816,2.514860497,-1.32,9.22,2976,0
HOEP,2/1/06,-5.149017859,6.144648632,-17.35,13,2688,-4.45195312,3.958821282,-13.54,6.21,2688,-3.788344491,2.767663125,-10.55,3.04,2688,0
HOEP,3/1/06,-20.80709679,5.565530477,-33.62,-6.24,2976,-19.01290995,4.556145591,-29.06,-9.26,2976,-17.16235216,3.922000757,-25.15,-9.79,2976,0
HOEP,4/1/06,-32.95368052,5.776762816,-44.51,-17.23,2880,-30.98652778,4.612528299,-40.67,-20.66,2880,-28.89957292,3.810195695,-37,-21.23,2880,0
HOEP,5/1/06,-34.18754705,8.813603,-45.22,-7.37,2976,-32.79619624,6.894187394,-41.65,-11.7,2976,-31.32806787,5.410465463,-38.32,-14.75,2976,0
HOEP,6/1/06,-27.17335418,10.20956158,-44.67,-8.35,2880,-26.59383682,8.006249894,-40.61,-13.53,2880,-26.00759722,6.076836667,-36.86,-16.11,2880,0
HOEP,7/1/06,-39.7474731,6.97225441,-47.1,-17.27,2976,-38.13419023,5.215963461,-43.97,-21.91,2976,-36.44411287,3.880071564,-41.14,-25.09,2976,0
HOEP,8/1/06,-24.45300738,6.826360696,-37.18,-9.18,2976,-24.7519758,4.947003733,-34.16,-13.84,2976,-25.00460014,3.463312179,-31.68,-17.36,2976,0
HOEP,9/1/06,-26.44269095,9.290117481,-42.66,-6.79,2880,-26.26346177,7.39668394,-39.08,-10.5,2880,-26.04492708,5.81437732,-35.77,-13.59,2880,0
HOEP,10/1/06,-21.93926411,7.298788269,-36.4,1.36,2976,-22.09082324,5.110178311,-32.78,-8.05,2976,-22.23489246,3.574019,-29.78,-13.74,2976,0
HOEP,11/1/06,-4.021118061,9.515872047,-24.65,16.89,2880,-6.146135423,7.578466398,-21.2,8.04,2880,-8.217357638,6.344211251,-19.06,2.49,2880,0
HOEP,12/1/06,6.169999999,5.752485076,-7.55,24.21,2976,4.201045025,3.418971675,-4.68,13.92,2976,2.192923389,1.94094824,-2.44,7.47,2976,0
HOEP,1/1/07,8.163679442,5.737415032,-5.5,23.79,2976,6.381347443,3.273045979,-1.57,15.14,2976,4.491182796,1.881758274,0.41,9.73,2976,0
HOEP,2/1/07,-5.547708335,6.504295839,-21.81,11.91,2688,-4.61376116,4.74087657,-16.55,6.08,2688,-3.792358628,3.819268437,-12.54,3.29,2688,0
HOEP,3/1/07,-20.1929469,6.404767916,-32.61,-2.61,2976,-18.2952285,5.095901682,-28.68,-5.95,2976,-16.57142474,4.287220385,-25.34,-7.09,2976,0
HOEP,4/1/07,-28.1794722,7.303087027,-39.32,-10.21,2880,-26.63581944,5.469619553,-35.46,-13.07,2880,-25.15524653,4.114962302,-32.25,-14.82,2880,0
HOEP,5/1/07,-25.76163644,8.083321131,-38.89,-8.73,2976,-25.02959005,5.986552302,-35.51,-13.67,2976,-24.28399192,4.55362772,-32.79,-16.11,2976,0
HOEP,6/1/07,-24.84618055,8.269695201,-42.9,-7.13,2880,-23.9199236,6.245278279,-38.61,-11.18,2880,-23.07646181,4.807420181,-35.17,-13.85,2880,0
HOEP,7/1/07,-27.9128898,8.60203385,-43.8,-8.63,2976,-27.17033263,6.405760495,-39.64,-12.14,2976,-26.45180106,4.88811097,-36.35,-14.77,2976,0
HOEP,8/1/07,-27.93160281,7.424038139,-41.74,-6.73,2976,-27.27386762,5.338605668,-37.84,-13.18,2976,-26.62404232,3.992076929,-34.78,-16.82,2976,0
HOEP,9/1/07,-24.83335764,6.235751119,-38.65,-10.3,2880,-24.7124722,4.390611684,-34.89,-14.63,2880,-24.53779515,3.237843298,-32.07,-17.13,2880,0
HOEP,10/1/07,-21.51015793,5.649126431,-39.44,-6.83,2976,-21.43622311,4.021455677,-34.69,-13.14,2976,-21.33676075,3.031282185,-31.09,-16.23,2976,0
HOEP,11/1/07,-4.681638888,10.56941456,-25.49,15.95,2880,-6.850559019,8.793375503,-24.17,6.03,2880,-8.788934041,7.622381284,-23.11,0.45,2880,0
HOEP,12/1/07,7.596636424,6.132543001,-6.97,23.73,2976,5.226928762,3.819429034,-3.75,13.4,2976,3.128975137,2.879086292,-2.87,8.56,2976,0
HOEP,1/1/08,5.93385753,5.044770297,-5.7,19.9,2976,4.836424732,3.16184087,-0.79,12.4,2976,3.744163311,2.134227266,-0.39,8.61,2976,0
HOEP,2/1/08,-6.137521556,4.955866945,-18.63,8.71,2784,-5.355323273,3.506778794,-14.2,1.65,2784,-4.785172414,3.026229573,-11.52,0.29,2784,0
HOEP,3/1/08,-19.56130712,7.471822638,-33.43,-3.78,2976,-17.86042339,6.171390137,-29.73,-6.16,2976,-16.75038305,5.562604519,-27.51,-6.56,2976,0
HOEP,4/1/08,-24.27857985,5.83499718,-34.12,-9.57,2880,-23.3633125,4.24161346,-30.75,-13.25,2880,-22.72061459,3.446502413,-28.8,-14.9,2880,0
HOEP,5/1/08,-29.63085014,7.008866152,-41.42,-9.04,2976,-28.25613576,5.429115408,-37.87,-12.84,2976,-27.34673387,4.704774215,-35.77,-14.42,2976,0
HOEP,6/1/08,-21.66803819,7.081373704,-36.68,-5.68,2880,-21.61511457,5.557523422,-33.32,-9.21,2880,-21.53792013,4.807305244,-32.08,-10.94,2880,0
HOEP,7/1/08,-33.99711357,7.386855087,-42.94,-16.55,2976,-32.72259744,5.438422733,-39.84,-19.65,2976,-31.91983531,4.511206082,-38.15,-21.06,2976,0
HOEP,8/1/08,-39.26832664,5.696609334,-48.87,-18.81,2976,-37.74158266,4.519453553,-45.56,-22.47,2976,-36.77845767,4.051011702,-43.76,-23.96,2976,0
HOEP,9/1/08,-22.30315627,7.943018688,-42.52,-9.71,2880,-23.23110069,6.541642301,-40.41,-14.34,2880,-23.72746528,5.96877184,-39.31,-16.33,2880,0
HOEP,10/1/08,-18.24046707,6.526665459,-33.06,0.7,2976,-18.78965389,4.722220397,-29.72,-8.31,2976,-19.07622984,4.016782235,-28.05,-10.7,2976,0
HOEP,11/1/08,-4.294850696,6.708551399,-20.92,12.69,2880,-6.113510411,4.491828206,-17.18,3.95,2880,-7.195954863,3.925068548,-15.82,0.18,2880,0
HOEP,12/1/08,7.902926746,5.312850085,-5.24,21.26,2976,5.765779572,3.662159169,-1.36,14.51,2976,3.96721102,3.083947631,-1.76,10.89,2976,0
HOEP,1/1/09,5.518904572,5.076223971,-3.45,21.67,2976,4.623884407,3.380353173,-0.36,14.52,2976,3.811797714,2.523223764,-0.16,10.91,2976,0
HOEP,2/1/09,-6.970539431,6.787545395,-19.75,9.6,2688,-5.690059528,5.840434843,-16.64,5.58,2688,-4.996949404,5.308132649,-15.01,3.38,2688,0
HOEP,3/1/09,-23.43844086,5.660711769,-31.96,-6.96,2976,-21.75946573,5.173979777,-29.3,-8.39,2976,-20.8711492,5.081621197,-28.1,-8.72,2976,0
HOEP,4/1/09,-21.82711804,6.362933973,-34.58,-10.17,2880,-21.47832987,4.900274376,-31.69,-13.04,2880,-21.25333681,4.245001269,-30.22,-13.96,2880,0
HOEP,5/1/09,-29.36302755,8.479815305,-41.02,-11.3,2976,-28.27487905,7.221516772,-38.21,-14.67,2976,-27.67629031,6.680499181,-37.1,-15.08,2976,0
HOEP,6/1/09,-28.14295484,8.152337243,-43.31,-10.18,2880,-27.87388193,6.392161595,-40.67,-13.83,2880,-27.6797882,5.643901263,-39.39,-15.44,2880,0
HOEP,7/1/09,-29.35236893,7.495234499,-40.84,-9.36,2976,-28.51135078,6.049201815,-38.07,-13.88,2976,-28.07033263,5.442043735,-36.74,-15.34,2976,0
HOEP,8/1/09,-31.14003696,7.219403706,-43.44,-16.64,2976,-30.60515452,5.754499441,-41.01,-19.01,2976,-30.29618615,5.150335142,-39.88,-19.98,2976,0
HOEP,9/1/09,-29.6810486,8.469455642,-44.19,-7.5,2880,-29.59949999,6.52744031,-41.37,-13.65,2880,-29.51392011,5.765126293,-40.08,-15.96,2880,0
HOEP,10/1/09,-21.04467403,5.87677108,-31.71,-4.27,2976,-21.40912633,4.404676444,-29.93,-11.5,2976,-21.57229167,3.948299007,-29.21,-13.57,2976,0
HOEP,11/1/09,-3.384562939,7.063351079,-19.35,14.01,2391,-5.084454203,5.761971902,-16.99,6.79,2391,-6.056988701,5.212073147,-16.87,3.11,2391,489
HOEP,12/1/09,6.968817208,4.569193608,-2.16,19.73,2976,5.434623658,2.804118085,-0.17,11.94,2976,4.169005382,2.016625345,-0.06,8.78,2976,0
HOEP,1/1/10,5.675436375,4.301601454,-2.97,16.67,2452,4.895016321,2.690871807,0.03,11.21,2452,4.163001634,1.959467355,0.23,8.68,2452,0
HOEM,1/1/10,2.657854171,3.787695963,-3.89,13.74,480,2.383958334,2.033127364,-0.19,8.35,480,2.056062502,1.379786421,-0.01,5.9,480,0
HOEM,2/1/10,-4.076473213,4.422499044,-13.9,8.42,2688,-2.932607888,3.300920187,-10.48,4.84,2688,-2.457593007,2.905852654,-9.05,3.15,2688,0
HOEM,3/1/10,-17.05296708,6.311290941,-28.12,-2.13,2976,-15.42535955,5.247274973,-25.42,-4.01,2976,-14.70586022,4.927450437,-24.37,-4.3,2976,0
HOEM,4/1/10,-24.76024305,4.419466949,-33.16,-12.43,2880,-23.7136736,3.191179601,-30.44,-15.07,2880,-23.23462848,2.809520925,-29.42,-15.86,2880,0
HOEM,5/1/10,-29.73583332,7.460776722,-43.89,-14.09,2976,-28.6550941,5.897272464,-40.45,-18.25,2976,-28.17038303,5.395776157,-39.11,-19.31,2976,0
HOEM,6/1/10,-31.92036807,6.316263547,-41.47,-13.41,2880,-31.03409027,4.58159189,-38.34,-19.65,2880,-30.62946177,4.002706944,-37.14,-21.06,2880,0
HOEM,7/1/10,-33.5589953,7.856460585,-45.84,-16.3,2976,-32.61791332,6.129888702,-42.4,-20.1,2976,-32.19325939,5.524807673,-41.1,-21.23,2976,0
HOEM,8/1/10,-31.22538643,6.266110973,-44.59,-16.04,2976,-30.94048721,4.542183535,-41.85,-21.03,2976,-30.79098453,4.012255444,-40.77,-22.34,2976,0
HOEM,9/1/10,-31.57682985,6.119488455,-43.11,-14.4,2880,-31.14293402,4.504374182,-40.41,-18.76,2880,-30.94001041,3.97300069,-39.34,-20.07,2880,0
HOEM,10/1/10,-18.75077959,5.626319579,-38.13,-3.69,2976,-19.60544354,4.071260206,-35.89,-10.87,2976,-19.93542002,3.7626751,-35.05,-12.35,2976,0
HOEM,11/1/10,-2.60180459,5.547346861,-17.15,11.01,2876,-4.459224623,3.728254708,-13.99,-0.18,2876,-5.170017385,3.608802164,-13.78,-0.92,2876,4
HOEM,12/1/10,7.377668528,5.196452248,-6.26,20.54,2878,5.316191802,3.956266329,-3.38,12.81,2878,3.95943364,3.439752401,-3.14,10.03,2878,98
HOEM,1/1/11,3.971397853,4.420839155,-4.7,19.14,2976,3.411945567,2.925722337,-0.3,12.45,2976,2.860651884,2.288421232,-0.17,9.76,2976,0
HOEM,2/1/11,-3.594084822,4.003047586,-16.29,8.65,2688,-2.371778272,2.456081051,-11.25,3.93,2688,-1.929017856,2.091120877,-9.59,2.07,2688,0
HOEM,3/1/11,-18.50018819,5.748522353,-29.13,-5.24,2976,-16.75550067,4.924794242,-25.24,-5.93,2976,-16.12071573,4.805296229,-24.11,-5.91,2976,0
HOEM,4/1/11,-23.18744791,6.783707096,-34.58,-6.17,2880,-22.30155556,5.038520325,-31.09,-9.32,2880,-21.99624653,4.523745327,-30.03,-10.51,2880,0
HOEM,5/1/11,-27.59802752,6.820600612,-39.37,-10.6,2976,-26.78827959,5.055197153,-36.41,-14.23,2976,-26.48325268,4.548382901,-35.41,-15.33,2976,0
HOEM,6/1/11,-23.32155903,7.304005302,-35.82,-8.93,2880,-22.78142015,5.811454614,-33.45,-11.52,2880,-22.5897743,5.384201176,-32.7,-12.21,2880,0
HOEM,7/1/11,-23.77519152,8.320631421,-37.74,-6.93,2976,-23.98410284,6.640628348,-35.27,-11.58,2976,-24.02787297,6.180961637,-34.51,-12.91,2976,0
HOEM,8/1/11,-26.49903898,9.233272865,-42.08,-7.46,2976,-25.81062163,7.336431061,-38.76,-10.49,2976,-25.5780746,6.824289919,-37.74,-11.37,2976,0
HOEM,9/1/11,-26.29821876,7.560216948,-40.07,-9.39,2880,-25.61936807,5.705562976,-36.31,-12.97,2880,-25.39585068,5.231870595,-35.24,-13.96,2880,0
HOEM,10/1/11,-19.2381922,6.435785311,-34.31,0.15,2976,-19.80693213,4.551049363,-31.22,-9.36,2976,-19.99489919,4.164685562,-30.38,-11.19,2976,0
HOEM,11/1/11,-1.444142357,6.076574457,-18.22,12.19,2880,-3.407944444,4.522499426,-16.6,6.22,2880,-4.277114584,4.138157493,-16.3,2.85,2880,0
HOEM,12/1/11,6.584678991,4.977679164,-1.89,20.82,2975,5.080087396,3.328597776,-0.08,14.12,2975,3.767173111,2.634170898,-0.14,10.69,2975,1
HOEM,1/1/12,5.47118448,4.577288893,-2.35,19.36,2938,4.764339688,3.116799001,-0.04,12.87,2938,4.043590877,2.44737734,-0.02,10.09,2938,1
HOEM,2/1/12,-0.687906574,1.979518795,-5.47,7.41,1156,-0.195925605,0.633787289,-2.25,3.95,1156,-0.098884084,0.316641548,-0.86,2.14,1156,0
HOEM,9/1/12,-30.51711668,3.047058849,-34.33,-19.29,163,-29.43987729,2.672710678,-32.39,-21,163,-28.95527596,2.520420153,-31.56,-21.59,163,0
HOEM,10/1/12,-22.07658145,3.349730406,-32.84,-15.45,1369,-21.94038012,2.8720875,-31.36,-17.07,1368,-21.84032162,2.752573439,-30.92,-17.46,1368,1
HOEM,11/1/12,-8.792240367,7.205372319,-23.12,8.34,2879,-9.263001051,6.341527348,-21.56,1.43,2879,-9.52662384,6.037412627,-21.08,-0.5,2879,0
HOEM,12/1/12,5.965682126,4.053551467,-1.61,18,2976,4.342047062,2.794488213,-0.32,12.48,2975,2.939946221,2.247548525,-0.7,9.46,2975,1
HOEM,1/1/13,4.928632392,4.368059665,-3.02,17.3,2976,4.294902554,3.005098354,-0.28,12.51,2976,3.569381719,2.29210996,-0.14,9.73,2976,0
HOEM,2/1/13,-3.803489583,3.663359502,-13.13,6.48,2688,-2.725982145,2.305830611,-8.35,2.04,2688,-2.310014881,1.97644885,-7.06,1.04,2688,0
HOEM,3/1/13,-17.94878359,6.32770466,-30.18,-5.09,2976,-16.40437164,5.558995888,-27.11,-7.04,2976,-15.83285618,5.383640875,-26.07,-6.64,2976,0
HOEM,4/1/13,-29.72068749,5.865166477,-38.75,-13.83,2880,-28.65624305,4.587361345,-36.45,-18.68,2880,-28.22037503,4.201514981,-35.62,-19.79,2880,0
HOEM,5/1/13,-25.18050738,5.857914081,-36.75,-12.67,2976,-24.85432457,4.523799684,-33.32,-15.48,2976,-24.72018481,4.106301313,-32.1,-16.3,2976,0
HOEM,6/1/13,-28.61723957,6.197201596,-42.11,-12.68,2880,-28.10024653,4.884638899,-39.02,-17.16,2880,-27.89460762,4.492072924,-37.96,-18.55,2880,0
HOEM,7/1/13,-33.45383063,5.175011088,-43.8,-18.86,2976,-32.65480174,4.049906972,-41.33,-23.06,2976,-32.32145496,3.711831787,-40.45,-23.85,2976,0
HOEM,8/1/13,-30.95997986,6.602085977,-40.4,-10.65,2976,-30.55913977,4.822538385,-38,-17.07,2976,-30.3974126,4.307295099,-37.12,-19.26,2976,0
HOEM,9/1/13,-23.2940625,5.71854671,-33.79,-8.35,2880,-23.58993403,4.004556172,-31.28,-14.46,2880,-23.72743749,3.549026164,-30.45,-15.62,2880,0
HOEM,10/1/13,-19.3433984,5.702379813,-30,-3.48,2972,-19.55265815,4.302491231,-27.5,-8.91,2972,-19.66320659,3.907662697,-26.83,-10.53,2972,0
HOEM,11/1/13,-4.569708326,6.752630804,-23.05,11.85,2880,-6.161965281,5.502303811,-20.19,6.26,2880,-6.928059024,5.10599263,-19.44,2.43,2880,0
HOEM,12/1/13,6.175483867,3.508834271,-1.11,14.57,2976,4.985194896,2.438839314,-0.11,10.56,2976,3.745248657,1.962922742,-0.2,7.85,2976,761
HOEM,1/1/14,5.27393145,4.087151841,-1.38,16.43,2976,4.799069223,3.180281323,-0.14,12.22,2976,4.168830646,2.665290659,-0.24,10.06,2976,2976
HOEM,2/1/14,-3.992154016,3.47443066,-12.96,3.03,2688,-3.105751488,2.845573066,-10.41,-0.08,2688,-2.595022322,2.467180695,-8.91,-0.02,2688,2688
HOEM,3/1/14,-16.83936155,5.675119633,-30.31,-6.39,2976,-15.68206654,5.295607032,-28.55,-6.52,2976,-14.97173723,5.131247144,-27.52,-6.17,2976,2976
HOEM,4/1/14,-25.13761805,5.755347257,-36.34,-8.92,2880,-24.43838889,4.863540627,-34.39,-11.29,2880,-24.02778125,4.406070182,-33.37,-12.44,2880,2880
HOEM,5/1/14,-24.80806452,8.356997948,-37.72,-7.86,2976,-24.62242607,7.392552108,-35.85,-10.03,2976,-24.49653896,6.897649623,-34.86,-11.14,2976,2976
HOEM,6/1/14,-29.1738507,4.960619923,-38.49,-13.81,2880,-28.57049998,4.217706682,-36.82,-15.69,2880,-28.22501389,3.856358504,-35.93,-16.67,2880,2880
HOEM,7/1/14,-36.80802084,7.26771735,-45.11,-14.07,2976,-36.1625168,6.261297462,-43.75,-16.99,2976,-35.77037297,5.749529488,-43.01,-18.4,2976,2976
HOEM,8/1/14,-24.71446236,7.442765417,-43.01,-12.29,2976,-25.16388106,6.69657542,-41.57,-15.38,2976,-25.39860888,6.35225455,-40.84,-16.37,2976,2976
HOEM,9/1/14,-20.50969097,5.36547413,-30.83,-8.46,2880,-20.43851388,4.398942535,-29.17,-10.84,2880,-20.41274654,3.942287251,-28.32,-12.03,2880,2880
HOEM,10/1/14,-14.15344759,4.418326505,-25.97,-1.74,2976,-14.57436157,3.903465483,-24.84,-4.87,2976,-14.83631721,3.705575017,-24.31,-6.21,2976,2976
HOEM,11/1/14,-9.66777779,4.00163406,-16.79,0,648,-10.0092284,2.458074418,-14.81,-3.81,648,-10.28001542,1.912937772,-13.95,-5.31,648,648
HOEM,12/1/14,4.108275886,1.846049993,1.65,7.3,29,4.562758602,1.501403833,3.15,9.04,29,4.484137938,1.181798047,3.34,6.84,29,29
HOEM,1/1/15,3.627908939,4.613019261,-6.22,19.16,2965,3.183666103,3.411551552,-4.01,14.84,2965,2.656937605,2.141783894,-1.99,9.5,2965,2965
HOEM,2/1/15,-2.95447917,4.745747626,-13.34,11.52,2688,-2.629259676,3.860472133,-11.06,7.92,2688,-2.342247025,3.062561326,-9.46,4.8,2688,2688
HOEM,3/1/15,-21.60625001,7.194433729,-31.23,-2.59,2976,-20.32848453,6.711199884,-28.88,-4.58,2976,-18.87763104,6.229723107,-26.74,-6.15,2976,2976